Location: Santa Giusta
(39.8800°N, 8.6069°E)
Time: 17:22:53
(UTC+00:00)

Cosmos 2219 Rocket - Pass Details

Date: 02 February 2023
Orbit: 826 x 848 km, 71.0° (Epoch: 30 March)

Event Time Altitude Azimuth Distance (km) Brightness Sun altitude
Rises 18:17:43 0° 183° (S) 3,347 5.4 -17.9°
Reaches altitude 10° 18:20:13 10° 177° (S) 2,419 4.6 -18.4°
Maximum altitude 18:25:27 45° 106° (ESE) 1,121 2.4 -19.4°
Enters shadow 18:27:05 35° 65° (ENE) 1,308 2.7 -19.7°
